TimeEST,TemperatureF,Dew PointF,Humidity,Sea Level PressureIn,VisibilityMPH,Wind Direction,Wind SpeedMPH,Gust SpeedMPH,PrecipitationIn,Events,Conditions,WindDirDegrees,DateUTC
12:00 AM,14.0,12.2,93,30.04,4.0,NE,5.8,-,N/A,,Light Freezing Drizzle,50,2013-12-23 05:00:00
1:00 AM,14.0,12.2,93,30.04,2.5,NE,5.8,-,N/A,,Light Freezing Drizzle,40,2013-12-23 06:00:00
2:00 AM,15.8,12.2,86,30.05,2.0,ENE,4.6,-,N/A,,Light Freezing Drizzle,60,2013-12-23 07:00:00
3:00 AM,15.8,12.2,86,30.05,1.5,Calm,Calm,-,N/A,,Light Freezing Drizzle,0,2013-12-23 08:00:00
4:00 AM,15.8,14.0,93,30.06,1.5,ENE,5.8,-,N/A,,Light Freezing Drizzle,60,2013-12-23 09:00:00
5:00 AM,15.8,14.0,93,30.06,1.5,NNE,2.3,-,N/A,,Light Freezing Drizzle,20,2013-12-23 10:00:00
6:00 AM,15.8,14.0,93,30.06,1.5,NNE,4.6,-,N/A,,Overcast,30,2013-12-23 11:00:00
7:00 AM,15.8,14.0,93,30.07,1.5,ENE,5.8,-,N/A,,Light Freezing Drizzle,60,2013-12-23 12:00:00
7:42 AM,15.8,14.0,93,30.07,2.0,NE,4.6,-,N/A,Snow,Light Freezing Drizzle,50,2013-12-23 12:42:00
8:00 AM,15.8,14.0,93,30.09,2.0,NNE,2.3,-,N/A,Snow,Light Freezing Drizzle,30,2013-12-23 13:00:00
8:25 AM,15.8,14.0,93,30.08,4.0,NNE,4.6,-,N/A,Snow,Light Snow,30,2013-12-23 13:25:00
9:00 AM,17.6,14.0,86,30.09,5.0,NNE,3.5,-,N/A,Snow,Light Snow,20,2013-12-23 14:00:00
10:00 AM,17.6,15.8,93,30.10,6.0,NNE,3.5,-,N/A,Snow,Light Snow,30,2013-12-23 15:00:00
11:00 AM,17.6,15.8,93,30.10,6.0,NE,3.5,-,N/A,Snow,Light Snow,40,2013-12-23 16:00:00
11:24 AM,17.6,15.8,93,30.08,6.0,ENE,3.5,-,N/A,,Overcast,60,2013-12-23 16:24:00
12:00 PM,17.6,15.8,93,30.07,6.0,NNE,2.3,-,N/A,,Overcast,20,2013-12-23 17:00:00
1:00 PM,17.6,15.8,93,30.07,6.0,Calm,Calm,-,N/A,,Overcast,0,2013-12-23 18:00:00
2:00 PM,19.4,17.6,93,30.08,6.0,South,3.5,-,N/A,,Overcast,180,2013-12-23 19:00:00
3:00 PM,19.4,17.6,93,30.09,6.0,SW,5.8,-,N/A,,Overcast,230,2013-12-23 20:00:00
4:00 PM,19.4,17.6,93,30.12,6.0,WSW,4.6,-,N/A,,Overcast,240,2013-12-23 21:00:00
5:00 PM,19.4,17.6,93,30.13,10.0,WSW,6.9,-,N/A,,Overcast,250,2013-12-23 22:00:00
5:51 PM,19.4,17.6,93,30.14,10.0,WSW,5.8,-,N/A,Snow,Light Snow,240,2013-12-23 22:51:00
6:00 PM,19.4,17.6,93,30.15,6.0,WSW,8.1,-,N/A,Snow,Light Snow,240,2013-12-23 23:00:00
7:00 PM,19.4,17.6,93,30.17,10.0,WSW,6.9,-,N/A,Snow,Light Snow,240,2013-12-24 00:00:00
8:00 PM,19.4,15.8,86,30.19,15.0,WSW,6.9,-,N/A,Snow,Light Snow,240,2013-12-24 01:00:00
9:00 PM,19.4,14.0,80,30.20,25.0,WSW,6.9,-,N/A,Snow,Light Snow,250,2013-12-24 02:00:00
10:00 PM,15.8,8.6,73,30.20,25.0,West,4.6,-,N/A,Snow,Light Snow,260,2013-12-24 03:00:00
11:00 PM,14.0,6.8,73,30.22,25.0,West,3.5,-,N/A,,Mostly Cloudy,260,2013-12-24 04:00:00